Location: Ballingbuur
(53.0000°N, 5.7667°E)
Time: 08:35:32
(UTC+00:00)

Cosmos 1356 - Pass Details

Date: 14 April 2021
Orbit: 438 x 442 km, 81.1° (Epoch: 17 May)

Event Time Altitude Azimuth Distance (km) Brightness Sun altitude
Rises 20:23:18 0° 348° (NNW) 2,454 8.0 -15.0°
Reaches altitude 10° 20:25:24 10° 351° (N) 1,578 6.9 -15.2°
Maximum altitude 20:28:49 67° 75° (ENE) 488 3.4 -15.6°
Enters shadow 20:30:03 36° 147° (SSE) 726 3.9 -15.8°
